Location: Brantley
(31.5822°N, 86.2569°W)
Time: 22:47:51
(UTC+00:00)

A-11 Canister half - Pass Details

Date: 22 February 2026
Orbit: 1525 x 1683 km, 47.3° (Epoch: 10 March)

Event Time Altitude Azimuth Distance (km) Brightness Sun altitude
Rises 02:03:37 0° 307° (NW) 4,678 12.4 -31.9°
Reaches altitude 10° 02:06:53 10° 314° (NW) 3,692 11.6 -32.6°
Enters shadow 02:15:34 45° 23° (NNE) 1,980 9.3 -34.4°
